{"data":{"norad_id":69222,"intl_designator":"2026-115M","name":"STARLINK-37760","alt_names":[],"object_type":"PAYLOAD","status":"ACTIVE","operator":null,"country":"US","launch_date":"2026-05-26","launch_site_code":"AFWTR","launch_vehicle":null,"mission":null,"orbit_class":"UNKNOWN","rcs_meters":null,"size_class":null,"mass_kg":null,"dimensions":null,"purposes":["comms"],"wikipedia_slug":null,"has_3d_model":false,"image_url":null,"decayed_at":null,"tle_current":{"epoch":"2026-09-19T23:59:16.451808Z","epoch_age_seconds":70269,"freshness":"FRESH","line1":"1 69222U 26115M   26262.99949597  .00011950  00000+0  37184-3 0  9996","line2":"2 69222  97.2829 279.0999 0001715  95.7833 264.3606 15.33448496 19211","mean_motion":15.33448496,"eccentricity":0.0001715,"inclination_deg":97.2829,"raan_deg":279.0999,"arg_perigee_deg":95.7833,"mean_anomaly_deg":264.3606,"bstar":0.00037184,"rev_number":1921,"period_min":93.905990566768,"perigee_km":464.35908349549,"apogee_km":466.70646222758,"semimajor_km":6843.6697728615,"source":"CELESTRAK","updated_at":"2026-09-20T09:00:44.104067Z"}}}